Regional Weather Roundup
Issued by NWS Grand Forks, ND

Home | Current Version | Previous Version | Text Only | Print | Product List | Glossary Off
Versions: 1 2 3 4 5 6 7 8 9 10 11 12 13 14 15 16 17 18 19 20 21 22 23 24 25 26 27 28 29 30 31 32 33 34 35 36 37 38 39 40 41 42 43 44 45 46 47 48 49 50

000
ASUS43 KFGF 030831
RWRFGF
PRAIRIE TO PINES  WEATHER ROUNDUP
NATIONAL WEATHER SERVICE EASTERN NORTH DAKOTA/GRAND FORKS ND
300 AM CDT WED JUN 03 2015

 **SATELLITE DATA USED TO AUGMENT SKY COVER AT AUTOMATED STATIONS**
 *****  WEATHER ACROSS EASTERN NORTH DAKOTA  *****

CITY           SKY/WX    TMP DP  RH WIND       PRES   REMARKS
GRAND FORKS    CLOUDY    61  60  97 N12       29.74R
GRAND FRKS AFB CLOUDY    61  59  94 NE13      29.75R
GRAND FRKS NWS   N/A     59 N/A N/A N10         N/A
DEVILS LAKE    CLOUDY    54  43  66 N14       29.82R
FARGO          MOCLDY    69  62  78 S10       29.68R
WAHPETON ARPT  PTSUNNY   64  59  82 S9        29.72R
$$

 ***** WEATHER ACROSS CENTRAL AND WESTERN NORTH DAKOTA  *****

CITY           SKY/WX    TMP DP  RH WIND       PRES   REMARKS
BISMARCK       CLOUDY    61  58  90 NW13      29.81S
MINOT          CLOUDY    49  46  90 N20       29.91R
JAMESTOWN      CLOUDY    61  59  93 N10       29.75S
MINOT AFB      DRIZZLE   48  48 100 NE14      29.93R
GARRISON         N/A     51  48  89 N13G22    29.87R
WILLISTON      CLOUDY    53  51  93 NW9       29.97R
DICKINSON      CLOUDY    54  50  86 NW9       29.91R
HETTINGER      CLOUDY    55  51  86 NW15      29.91S
$$

 *****  OTHER AIRPORT OBSERVATIONS IN OUR AREA  *****

CITY           SKY/WX    TMP DP  RH WIND       PRES   REMARKS
WALHALLA       FAIR      52  43  71 MISG      29.84S
GRAFTON AIRPOR CLOUDY    54  54 100 N13       29.78S
VALLEY CITY AR CLOUDY    61  61 100 N9        29.74R
CANDO          RAIN      48  41  76 N17G25    29.87S
CAVALIER APRT  CLOUDY    54  41  62 N10       29.82S
GWINNER        NOT AVBL
SHEYENNE NWR     N/A     63  61  93 NW7       29.95S
ROLLA          CLOUDY    46  46 100 N17       29.92S
 ***** THE ABOVE OBSERVATIONS ARE NON NWS ARE NOT QUALITY
       CONTROLLED AND MAY MIS-REPORT RAIN FOR SNOW...
$$

  *****  WEATHER ACROSS NORTHERN MINNESOTA  *****

CITY           SKY/WX    TMP DP  RH WIND       PRES   REMARKS
FLAG ISLAND    CLOUDY    57  57 100 NE9       29.80S
WARROAD        FOG       59  55  88 NE7       29.81S VSB 1/2
ROSEAU         HAZE      61  55  82 NE9       29.79F VSB 3/4
HALLOCK        CLOUDY    55  54  94 N10       29.78F
THF RVR FALLS  CLOUDY    59  57  94 NE8       29.75S
BAUDETTE       CLOUDY    59  57  93 NE6       29.79F
WASKISH        CLOUDY    59  57  94 SE7       29.76F
CROOKSTON      CLOUDY    61  59  94 NE6       29.72R
STEPHEN NDAWN    N/A     61  61 100 NE10        N/A
GREENBUSH NDAW   N/A     61  59  94 NE12        N/A
$$
  *****  WEATHER ACROSS CENTRAL AND WEST MINNESOTA  *****

CITY           SKY/WX    TMP DP  RH WIND       PRES   REMARKS
FOSSTON        CLOUDY    61  57  88 CALM      29.76F
BEMIDJI        TSTM      59  58  94 SE14      29.79S
PARK RAPIDS    MOCLDY    63  57  81 SE10      29.78R
ELBOW LAKE     FAIR      64  57  80 S15       29.75R
WADENA         MOCLDY    63  55  77 S12       29.78S
DETROIT LAKES  PTCLDY    64  57  77 S8        29.76R
MOORHEAD       MOCLDY    66  61  82 S14       29.70R
FERGUS FALLS   MOCLDY    66  57  72 S9        29.74R
MORRIS MN      PTCLDY    64  57  77 SE13      29.75S
STAPLES        CLOUDY    63  55  77 SE7       29.81S
$$
  *****  WEATHER ELSEWHERE ACROSS MINNESOTA  *****

CITY           SKY/WX    TMP DP  RH WIND       PRES   REMARKS
DULUTH         CLOUDY    53  43  68 SE7       29.88F
INTRNTL FALLS  LGT RAIN  58  57  97 CALM      29.81F
ELY            RAIN      54  52  94 CALM      29.93R
CLOQUET        CLOUDY    50  43  76 E5        29.87F
WHEATON        MOCLDY    63  59  88 SE9       29.74S
BRAINERD       CLOUDY    60  58  92 SE8       29.83F THUNDER
HIBBING        CLOUDY    59  52  77 S5        29.84F
ALEXANDRIA     PTCLDY    65  56  72 S15       29.80R
SAINT CLOUD    PTCLDY    64  54  69 S12       29.84S
MINNEAPOLIS    CLOUDY    66  54  65 S12       29.89S
$$

  *****  WEATHER ACROSS SOUTH DAKOTA  *****

CITY           SKY/WX    TMP DP  RH WIND       PRES   REMARKS
SIOUX FALLS    CLOUDY    65  59  81 S16       29.82F
BROOKINGS      CLOUDY    64  59  82 S14G22    29.81F
WATERTOWN      CLOUDY    66  61  84 S12       29.77F
HURON          CLOUDY    72  58  61 SW6       29.76S
SISSETON         N/A     73  64  73 W25G44    29.68F
ABERDEEN       CLOUDY    67  64  90 W7        29.75R
MITCHELL       TSTM      68  62  81 S6        29.80R
PIERRE         LGT RAIN  64  59  83 W18       29.83R
MOBRIDGE       CLOUDY    61  56  83 NW14      29.80R
RAPID CITY     PTCLDY    55  50  83 NW12      29.89F
$$

  *****  SOME WEATHER IN NEARBY STATES *****

CITY           SKY/WX    TMP DP  RH WIND       PRES   REMARKS
GLASGOW MT     CLOUDY    54  51  90 E9        29.97R
GREAT FALLS MT CLOUDY    51  49  92 CALM      29.97S
CHEYENNE WY    PTCLDY    54  48  80 N14       30.01R
SCOTTSBLUFF NE PTCLDY    60  51  72 NE7       29.92S
OMAHA NE       MOCLDY    64  58  80 SE16      29.87F
DES MOINES IA  MOCLDY    61  56  83 S12       29.95F
DAVENPORT IA   PTCLDY    57  49  74 SE6       30.03S
CHICAGO IL     MOCLDY    51  44  77 CALM      30.07F
EAU CLAIRE WI  CLEAR     59  48  67 S7        29.95S
LA CROSSE WI   CLEAR     60  49  66 S6        29.98S
$$

  *****  SOME NATIONAL WEATHER *****

CITY           SKY/WX    TMP DP  RH WIND       PRES   REMARKS
LA GUARDIA NY  CLOUDY    53  49  86 E6        30.18R
RALEIGH NC     LGT RAIN  67  65  93 N6        30.01R
ATLANTA GA     PTCLDY    68  63  84 E6        29.97R
NEW ORLEANS LA PTCLDY    77  67  71 NE6       29.92S
OKLAHOMA CITY  PTCLDY    70  64  81 S12       29.90S
ALBUQUERQUE NM CLEAR     64  27  24 SE5       30.03R
SALT LAKE CITY CLEAR     64  45  49 S5        29.89F
LOS ANGELES CA PTCLDY    61  58  90 SW3       29.94F
BOISE ID       CLEAR     53  48  83 NW6       29.99S
SEATTLE WA     CLOUDY    56  49  77 S10       30.08S
$$

*** WEATHER ACROSS MANITOBA...SASKATCHEWAN AND ONTARIO ***
                ***ONTARIO***

CITY           SKY/WX    TMP DP  RH WIND       PRES   REMARKS
GERALDTON      LGT RAIN  48  46  93 S5        29.94S
THUNDER BAY    CLOUDY    48  43  81 N7        29.92F
SIOUX LOOKOUT  LGT RAIN  55  55 100 VRB2      29.86S FOG
TORONTO        CLEAR     50  43  76 E3        30.20S
BIG TROUT LK   CLEAR     37  36  93 W3        29.86S
PICKLE LAKE    NOT AVBL
DRYDEN         CLOUDY    57  55  94 NW3       29.84S FOG
KENORA         CLOUDY    57  57 100 NE7       29.84  FOG
$$
                *** MANITOBA***

CITY           SKY/WX    TMP DP  RH WIND       PRES   REMARKS
BRANDON        LGT RAIN  50  41  71 NE14G21   29.93R
DAUPHIN        CLOUDY    52  39  62 NW5       29.97R
ISLAND LAKE    CLEAR     45  37  76 W5        29.94R
PILOT MOUND      N/A     48  39  71 NE9         N/A
THE PAS        PTCLDY    37  34  87 CALM      30.01S
THOMPSON       CLEAR     37  30  75 NW5       29.95S
WINNIPEG       MOCLDY    55  36  47 NE16      29.88R
LYNN LAKE      CLEAR     37  30  75 NW8       30.00R
CHURCHILL      LGT RAIN  34  34 100 NW24G32   29.76R WCI  21
GILLAM         MOCLDY    45  34  65 NW20G28   29.85R
$$
                ***SASKATCHEWAN***

CITY           SKY/WX    TMP DP  RH WIND       PRES   REMARKS
ESTEVAN        LGT RAIN  50  48  93 NE10      29.98R
KINDERSLEY     CLOUDY    50  28  43 E13       29.98F
LLOYDMINSTER   CLOUDY    54  34  47 SE7       29.98S
PRINCE ALBERT  CLOUDY    37  32  81 CALM      30.02R
REGINA         CLOUDY    52  39  62 N5        29.98R
YORKTON        MOCLDY    50  43  76 NW3       29.99S
N. BATTLEFORD  CLOUDY    48  36  61 SE8       30.02S
LA RONGE       MOCLDY    37  30  75 CALM      30.03R
SASKATOON      MOCLDY    46  36  66 CALM      30.02S
SWIFT CURRENT  CLOUDY    50  36  57 SE6       29.99S
$$
NOTE: THESE ARE AUTOMATED STATIONS WITH LIMITED QUALITY CONTROL
      "FAIR" INDICATES FEW OR NO CLOUDS BELOW 12,000 FEET WITH NO
      SIGNIFICANT WEATHER AND/OR OBSTRUCTIONS TO VISIBILITY.
      SKY/WX - SKY CONDITION AND SIGNIFICANT WEATHER.
      TMP - AIR TEMPERATURE.    DP   - DEWPOINT TEMPERATURE.
      RH  - RELATIVE HUMIDITY.  PRES - PRESSURE.
      HX  - HEAT INDEX.         WCI  - WIND CHILL INDEX.
$



USA.gov is the U.S. government's official web portal to all federal, state and local government web resources and services.